Gillette, WY

2:11 AM MDT on July 23, 2017 (GMT -0600)
Gillette-Campbell County

Weather History for KGCC - November, 2012

Change the Weather History Date:

Thursday, November 29, 2012

  Actual Average Record
Temperature  
Mean Temperature 43 °F 27 °F  
Max Temperature 54 °F 37 °F 69 °F (1996)
Min Temperature 32 °F 16 °F -10 °F (1975)
Degree Days  
Heating Degree Days 22 38  
Month to date heating degree days 799 926  
Since 1 July heating degree days 1596 1835  
Cooling Degree Days 0 0  
Month to date cooling degree days 0 0  
Year to date cooling degree days 795 502  
Moisture  
Dew Point 29 °F    
Average Humidity 65    
Maximum Humidity 89    
Minimum Humidity 41    
Precipitation  
Precipitation 0.00 in 0.02 in 0.22 in (1976)
Month to date precipitation 0.54 0.54  
Year to date precipitation 9.01 13.48  
Sea Level Pressure  
Sea Level Pressure 29.89 in    
Wind  
Wind Speed 10 mph (SW)    
Max Wind Speed 29 mph    
Max Gust Speed 35 mph    
Visibility 10 miles    
Events      
T = Trace of Precipitation, MM = Missing Value Source: NWS Daily Summary

Daily Weather History Graph

Daily Weather History Graph

Search for Another Location

Airport or City:

Trip Planner

Search our weather history database for the weather conditions in past years. The results will help you decide how hot, cold, wet, or windy it might be!

Date:

Astronomy

Nov. 29, 2012 Rise Set
Actual Time 7:16 AM MST 4:24 PM MST
Civil Twilight 6:43 AM MST 4:57 PM MST
Nautical Twilight 6:07 AM MST 5:33 PM MST
Astronomical Twilight 5:32 AM MST 6:08 PM MST
Moon 5:29 PM MST (11/29) 8:05 AM MST (11/29)
Length of Visible Light 10h 13m
Length of Day
9h 08m
Full, 99% of the Moon is Illuminated
Nov 29
Full
Dec 6
Last Quarter
Dec 13
New
Dec 19
First Quarter
Dec 28
Full

Hourly Weather History & Observations

Time (MST) Temp. Windchill Dew Point Humidity Pressure Visibility Wind Dir Wind Speed Gust Speed Precip Events Conditions
12:53 AM 45.0 °F 36.9 °F 25.0 °F 46% 29.80 in 10.0 mi SSW 20.7 mph 27.6 mph N/A   Clear
1:53 AM 45.0 °F 36.6 °F 24.1 °F 44% 29.79 in 10.0 mi SW 21.9 mph - N/A   Clear
2:53 AM 43.0 °F 33.8 °F 26.1 °F 51% 29.78 in 10.0 mi SW 23.0 mph 31.1 mph N/A   Clear
3:53 AM 42.1 °F 33.3 °F 26.1 °F 53% 29.80 in 10.0 mi WSW 19.6 mph 27.6 mph N/A   Clear
4:53 AM 43.0 °F 34.0 °F 26.1 °F 51% 29.84 in 10.0 mi WSW 21.9 mph 32.2 mph N/A   Clear
5:53 AM 42.1 °F 35.2 °F 27.0 °F 55% 29.87 in 10.0 mi WSW 12.7 mph - N/A   Partly Cloudy
6:53 AM 42.1 °F 36.1 °F 27.0 °F 55% 29.89 in 10.0 mi West 10.4 mph - N/A   Overcast
7:53 AM 39.0 °F 35.7 °F 28.0 °F 65% 29.91 in 10.0 mi ESE 4.6 mph - N/A   Overcast
8:53 AM 46.0 °F 43.1 °F 28.9 °F 51% 29.89 in 10.0 mi West 5.8 mph - N/A   Partly Cloudy
9:53 AM 51.1 °F - 30.0 °F 44% 29.88 in 10.0 mi WNW 5.8 mph - N/A   Clear
10:53 AM 51.1 °F - 30.9 °F 46% 29.89 in 10.0 mi WNW 8.1 mph - N/A   Overcast
11:53 AM 51.1 °F - 32.0 °F 48% 29.87 in 10.0 mi NW 9.2 mph - N/A   Overcast
12:53 PM 53.1 °F - 30.9 °F 43% 29.86 in 10.0 mi West 5.8 mph - N/A   Clear
1:53 PM 53.1 °F - 32.0 °F 45% 29.87 in 10.0 mi North 6.9 mph - N/A   Clear
2:53 PM 53.1 °F - 32.0 °F 45% 29.90 in 10.0 mi North 4.6 mph - N/A   Clear
3:53 PM 46.0 °F - 33.1 °F 61% 29.93 in 10.0 mi Calm Calm - N/A   Clear
4:53 PM 34.0 °F 28.8 °F 30.0 °F 85% 29.97 in 10.0 mi South 5.8 mph - N/A   Clear
5:53 PM 34.0 °F 28.8 °F 30.0 °F 85% 29.98 in 10.0 mi South 5.8 mph - N/A   Clear
6:53 PM 34.0 °F - 30.9 °F 89% 29.99 in 10.0 mi Calm Calm - N/A   Clear
7:53 PM 34.0 °F 29.8 °F 30.0 °F 85% 29.99 in 10.0 mi SSE 4.6 mph - N/A   Clear
8:53 PM 37.0 °F 28.9 °F 32.0 °F 82% 29.95 in 10.0 mi South 12.7 mph - N/A   Clear
9:53 PM 36.0 °F 29.6 °F 30.9 °F 82% 29.93 in 10.0 mi South 8.1 mph - N/A   Clear
10:53 PM 36.0 °F 26.7 °F 28.9 °F 76% 29.93 in 10.0 mi South 15.0 mph - N/A   Clear
11:53 PM 37.0 °F 28.5 °F 28.0 °F 70% 29.93 in 10.0 mi South 13.8 mph - N/A   Clear